Theta_e
311 311 311 311 310 308 308 308 308 308 307 306 306 305 304 304 305 306 307 308 309 312 314 315 315 315 316 317 317 318 319 319 320 320 321 322 323 325 326 327 329 330 331 330 329 329 329 329 328 328 328 328 328 329 328 328 328 328 328 328 327 326 326
312 312 312 312 311 310 309 308 308 308 307 307 306 306 306 305 305 304 304 305 306 307 309 311 312 314 314 314 314 315 316 317 318 319 321 321 322 323 323 323 325 327 328 329 329 329 329 329 329 328 328 329 329 329 329 329 329 329 329 329 329 328 327
313 313 312 312 312 311 309 309 308 308 308 307 307 306 306 306 305 305 305 304 304 304 305 305 307 308 310 311 312 313 315 316 317 318 320 321 322 323 323 322 322 323 324 325 326 327 329 330 330 329 328 328 329 329 329 330 330 329 329 329 329 329 328
313 313 312 312 312 311 310 309 308 308 308 308 307 307 306 306 306 306 305 305 305 305 304 304 304 304 305 306 307 309 311 313 315 316 318 319 320 322 323 323 323 324 324 325 326 326 328 329 330 330 329 328 328 328 329 329 329 330 329 329 329 329 328
313 313 313 313 313 312 310 309 308 308 308 308 307 307 306 306 306 306 305 305 305 305 305 305 304 304 304 304 304 304 305 307 308 310 312 316 318 319 320 322 323 324 324 325 326 326 327 328 328 329 329 328 328 328 328 328 328 329 330 330 329 329 328
314 314 313 313 313 312 311 310 309 308 308 308 307 307 307 306 306 306 305 305 305 305 304 304 304 303 303 303 303 303 303 303 304 305 306 310 314 316 318 319 321 322 323 324 325 325 326 327 328 328 328 327 327 328 327 326 326 326 327 328 329 329 329
313 313 314 313 313 312 310 310 309 308 308 307 307 307 307 307 306 306 305 305 305 304 304 304 304 304 303 302 302 302 302 303 303 303 303 305 307 312 316 318 319 320 320 321 322 324 325 326 327 328 328 328 327 327 327 326 326 326 325 325 327 328 328
313 313 314 313 314 313 311 310 310 309 308 307 307 307 306 306 306 306 305 305 304 304 304 304 304 304 304 303 303 302 302 302 303 303 303 303 304 306 310 314 317 318 319 319 320 321 322 323 324 325 326 328 328 327 327 326 326 327 326 324 324 325 326
313 314 313 314 314 313 311 310 310 309 308 307 306 306 306 306 306 306 305 304 304 303 303 304 304 304 304 304 304 303 302 303 303 303 302 302 302 303 304 307 310 313 315 317 318 319 321 322 322 322 323 326 328 328 327 326 325 325 324 324 324 325 325
314 313 313 314 314 313 311 310 310 309 308 307 306 306 306 306 306 305 305 304 303 303 303 304 304 304 304 304 304 303 303 302 303 303 304 303 302 302 302 303 305 307 309 312 315 317 318 319 320 320 320 322 324 325 327 327 325 324 323 324 324 325 325
313 312 312 312 313 313 311 310 309 309 309 307 305 305 305 306 306 305 304 304 303 303 303 303 304 303 303 303 303 303 303 303 303 303 304 304 304 303 302 302 303 304 306 308 311 313 316 317 318 318 318 319 319 320 323 324 325 324 323 323 323 324 324
313 311 311 311 312 312 311 310 309 309 309 307 305 305 305 305 306 304 304 303 303 303 303 303 303 303 303 303 303 303 303 303 303 302 303 304 304 305 304 303 302 303 304 306 308 311 314 316 317 317 316 316 317 318 319 322 323 323 322 323 323 323 324
313 311 310 310 310 311 310 310 309 309 309 307 305 305 305 306 305 304 303 303 303 303 303 303 303 303 303 303 303 303 302 302 302 302 302 302 303 305 305 305 304 303 303 304 306 309 312 315 317 317 317 316 317 318 319 321 323 322 320 321 322 322 323
312 310 310 310 310 310 310 310 310 309 308 307 305 305 305 305 304 303 303 303 303 303 303 303 303 303 303 302 303 303 303 303 303 302 302 302 302 303 305 306 306 306 305 304 305 306 309 313 315 317 318 318 318 318 319 322 323 321 317 316 317 318 320
311 310 310 310 310 310 310 310 309 309 308 306 305 306 306 305 303 303 303 303 303 303 303 303 302 302 302 302 303 303 303 303 303 302 302 302 302 302 303 304 305 306 307 306 305 305 307 310 313 315 317 318 319 319 319 320 322 321 318 315 315 316 315
312 310 310 310 310 309 309 309 309 308 307 305 305 306 305 304 303 303 303 303 303 303 303 303 302 302 302 302 302 302 302 302 302 302 302 302 303 303 303 303 303 305 308 309 308 306 306 307 311 314 316 318 319 319 320 320 320 321 320 318 318 319 318
312 310 310 311 310 310 309 309 309 308 306 306 306 305 304 303 303 303 303 303 303 303 303 303 302 302 302 302 302 302 302 302 302 301 302 302 303 303 304 304 304 305 307 308 309 309 308 307 308 311 314 317 318 319 319 320 320 320 320 320 321 322 322
312 311 310 311 310 309 309 309 308 308 307 306 306 304 303 303 303 303 303 304 304 303 303 303 302 302 302 302 301 302 302 301 301 301 301 301 302 302 302 302 303 304 305 306 307 309 309 309 308 308 310 314 317 318 318 319 319 320 320 321 321 323 324
312 310 310 310 310 309 309 309 308 308 307 306 305 303 303 303 304 304 304 304 304 303 303 302 302 302 301 301 301 301 301 301 300 300 300 300 301 301 301 301 302 303 303 303 305 306 308 308 308 308 307 309 313 316 317 318 318 318 319 319 320 321 322
311 311 310 310 310 309 309 308 309 308 307 305 304 303 303 303 304 304 304 304 303 303 302 302 301 301 301 300 300 300 300 300 300 300 300 300 300 301 301 301 301 302 302 302 302 304 305 306 306 307 307 308 308 311 314 316 317 317 317 318 319 319 320
312 311 310 310 310 310 309 309 309 308 306 305 304 304 304 304 304 304 304 303 303 302 302 301 301 301 301 300 299 298 298 298 298 299 299 299 299 300 300 300 300 300 300 301 301 302 302 303 304 305 306 307 307 308 310 313 315 315 316 317 318 319 319
313 311 311 311 310 310 310 309 309 307 305 304 304 304 304 304 304 304 303 302 302 302 302 302 301 301 301 300 299 297 296 297 298 298 299 299 298 299 299 299 299 299 299 300 300 300 300 300 301 302 304 305 306 307 308 309 311 313 314 315 316 317 317
314 312 312 311 311 311 310 309 308 307 305 305 305 305 305 305 304 303 302 302 302 302 302 302 302 301 301 300 298 297 296 296 298 298 298 298 298 298 298 298 298 298 298 298 298 299 299 299 299 300 301 303 304 305 306 307 308 309 311 312 314 316 316
314 313 313 312 312 311 310 309 307 306 305 305 305 305 305 305 303 302 302 302 302 303 302 302 301 301 300 300 298 297 296 297 298 298 298 298 298 298 297 297 297 297 297 297 297 297 298 298 299 299 299 300 301 302 303 305 306 307 308 309 311 313 314
314 314 313 313 312 311 310 309 307 305 305 305 305 306 305 304 303 302 303 303 302 302 301 301 300 300 299 298 298 297 297 297 298 298 298 298 297 297 297 297 297 297 297 297 296 297 296 297 297 298 298 299 300 301 301 302 304 306 307 307 308 310 312
314 313 314 313 312 311 309 307 305 305 305 306 306 305 304 303 303 303 303 302 302 301 300 299 299 298 297 296 296 297 297 297 297 298 297 297 297 297 296 296 296 296 296 296 296 296 296 297 297 297 297 298 299 301 301 301 303 304 305 306 306 308 310
313 314 314 313 312 310 307 305 304 305 306 306 305 304 303 303 303 303 302 301 300 299 298 297 296 295 295 295 295 296 296 296 297 297 297 297 296 296 296 295 295 295 295 295 295 295 296 296 297 297 297 297 298 300 300 301 302 303 303 304 306 307 308
314 314 313 312 310 307 304 304 305 306 305 305 305 304 303 303 302 301 300 299 298 297 296 295 295 295 295 296 296 296 295 296 296 296 296 296 296 295 295 294 294 294 294 294 294 294 294 295 295 296 296 297 298 299 300 300 300 301 302 303 304 307 308
313 313 312 311 307 303 303 305 305 305 305 305 305 304 303 302 300 298 297 296 295 294 294 295 296 296 296 296 295 295 295 295 295 295 295 295 295 294 294 294 294 293 293 293 293 293 293 293 294 294 295 296 297 298 300 301 299 299 300 301 303 306 308
312 312 311 307 304 303 305 305 305 305 305 305 304 303 301 299 296 295 295 294 293 293 293 294 294 295 296 295 295 295 294 294 294 294 294 294 294 294 293 293 293 293 293 293 293 293 293 293 293 293 294 295 295 297 300 300 299 299 300 301 302 304 306
310 310 308 305 303 303 305 305 305 305 305 304 302 299 297 296 295 295 294 294 293 293 292 292 293 294 295 295 294 294 294 293 293 293 293 293 293 293 293 293 293 293 293 293 293 293 293 292 293 293 293 294 294 295 297 298 297 298 299 299 301 303 305
310 309 306 302 302 304 305 305 305 304 302 300 298 297 297 297 296 296 295 295 294 293 292 292 292 293 294 294 294 293 293 293 293 292 292 292 292 292 293 293 293 293 293 294 294 293 293 293 292 293 293 293 293 294 295 296 296 297 297 298 300 301 303
309 307 303 302 304 305 304 303 301 300 298 297 297 297 298 298 297 296 296 295 295 294 292 292 292 293 294 294 293 293 293 293 293 293 292 292 292 292 292 292 293 293 293 293 293 293 293 293 292 292 293 293 293 294 294 295 296 297 297 297 298 300 301
306 304 303 303 303 302 300 298 298 297 297 297 297 298 298 298 297 296 295 295 294 293 292 291 292 293 293 293 293 293 293 292 292 292 292 292 291 291 292 292 293 293 293 293 293 293 293 293 293 292 293 293 294 294 294 295 295 296 297 297 297 298 300
302 301 301 301 299 298 298 297 297 298 298 297 297 298 298 297 296 295 294 294 293 292 292 292 292 292 293 293 293 293 293 293 292 292 291 291 291 291 291 292 292 292 293 293 293 293 293 293 293 293 293 293 294 294 294 295 295 296 296 296 296 297 299
299 299 299 298 298 298 298 298 298 298 297 297 298 298 297 297 296 294 293 293 293 293 292 292 291 291 292 293 293 293 293 293 292 291 291 290 290 291 292 292 292 292 292 293 293 293 293 293 293 293 293 293 293 294 295 295 296 296 296 296 296 296 298
299 299 298 298 298 298 298 298 298 298 298 297 297 297 297 296 295 294 293 293 293 293 293 292 291 291 292 293 293 293 293 292 292 291 291 290 291 291 292 293 293 293 293 293 293 293 293 293 293 293 293 293 293 294 294 295 296 296 296 297 297 297 297
Wind_Speed
7 5 5 4 1 1 3 5 7 8 9 9 9 8 7 6 4 3 1 1 3 6 7 9 10 11 11 12 13 13 13 13 13 14 14 14 16 18 20 22 22 24 27 26 23 20 19 19 20 20 21 25 26 26 25 25 23 23 23 23 23 24 25
8 7 7 6 4 3 1 2 4 6 7 8 8 8 8 8 6 6 4 3 1 2 4 6 8 10 11 12 13 13 14 14 14 15 15 15 15 16 17 19 21 22 24 27 27 26 26 25 25 24 22 23 26 27 27 26 25 25 25 25 24 25 26
11 11 11 8 7 6 3 1 0 3 5 6 6 6 6 6 6 5 5 4 2 1 2 3 5 8 10 12 13 14 14 15 16 17 18 17 17 16 16 17 19 20 21 23 25 26 28 29 30 31 27 23 24 27 27 26 26 26 26 27 27 27 28
12 13 13 11 10 9 6 4 2 1 3 3 4 4 4 4 4 3 3 3 2 2 2 3 5 7 9 11 13 14 16 17 17 18 19 19 19 19 18 16 16 17 18 20 23 25 27 30 30 33 33 29 26 26 24 23 25 27 28 28 28 28 30
14 14 13 12 11 9 8 7 5 4 3 2 2 2 2 2 1 2 3 4 4 4 4 4 6 7 9 11 13 15 16 17 18 19 20 20 20 21 20 19 17 16 16 18 22 25 27 29 28 29 32 32 32 31 28 24 24 25 27 28 27 28 29
15 14 13 12 11 10 9 9 8 6 4 3 2 1 1 0 1 2 4 5 6 6 7 8 9 10 11 12 13 15 17 18 18 20 21 21 21 21 21 21 20 19 18 18 19 22 24 27 28 27 28 29 33 35 34 32 30 28 28 28 26 26 27
15 14 14 13 12 11 11 11 9 7 6 5 4 3 3 3 3 4 5 6 7 8 8 9 9 10 11 12 13 14 15 17 19 20 21 22 22 22 23 23 22 22 22 21 19 19 20 23 26 27 28 29 31 33 35 35 35 34 34 33 30 28 29
15 14 14 14 14 13 13 13 11 9 8 7 6 5 5 5 5 6 7 8 9 10 10 10 10 10 10 11 12 13 13 14 17 19 21 23 23 24 24 25 25 25 24 23 22 21 20 21 22 24 26 28 30 32 34 35 36 37 36 35 34 34 34
16 16 16 16 16 16 16 15 13 11 10 9 8 7 7 6 7 7 8 9 10 11 12 13 14 14 14 13 12 12 12 13 15 17 19 22 24 25 26 26 27 27 26 26 25 24 23 22 23 23 23 25 27 29 31 32 34 37 37 34 33 33 34
17 16 16 17 18 18 17 17 15 13 12 11 10 10 9 8 8 8 9 10 11 11 12 13 15 16 17 17 15 13 12 12 14 16 19 21 23 26 27 28 28 29 28 28 27 27 27 26 25 25 25 24 25 27 28 30 34 37 36 34 32 32 31
17 15 15 16 18 18 18 18 17 15 14 13 12 11 10 9 9 9 10 10 10 11 12 13 15 16 17 18 18 16 14 13 13 15 18 21 23 25 27 28 29 30 30 30 29 29 28 27 27 27 27 27 26 27 28 31 35 37 36 34 34 32 31
17 15 15 15 16 17 18 18 18 16 15 14 14 12 11 10 10 10 10 10 10 11 12 14 15 17 18 18 18 17 16 15 14 15 16 18 22 25 26 27 28 29 30 31 31 31 29 28 27 27 28 28 28 28 30 32 34 36 36 35 35 35 35
18 16 16 15 16 16 17 17 17 16 16 16 14 12 11 10 10 11 10 9 9 11 13 14 16 18 19 19 19 19 19 18 18 17 17 17 18 22 25 27 28 28 30 32 33 33 32 30 28 27 27 27 28 28 30 32 35 37 38 36 35 36 36
20 18 16 16 16 16 16 16 16 17 17 16 15 13 11 11 11 11 9 9 10 12 14 16 18 20 21 21 21 21 22 22 23 22 21 19 18 19 21 24 26 27 29 31 32 33 34 33 31 29 28 27 27 27 28 32 36 38 40 39 36 35 34
21 19 17 16 16 16 16 16 16 17 17 16 15 13 12 12 11 10 9 9 11 14 16 18 20 21 22 22 22 22 23 25 26 27 26 23 21 20 21 22 24 25 26 28 31 32 34 35 34 33 31 29 27 26 24 27 33 37 41 41 38 36 34
23 20 19 17 16 16 16 16 17 17 17 16 14 13 12 12 11 9 9 11 14 15 18 19 21 22 23 23 24 24 25 26 27 27 27 26 24 22 22 22 22 22 23 25 27 29 31 34 35 35 34 32 30 28 24 22 26 31 37 40 39 37 34
25 22 20 18 17 17 16 17 17 17 17 16 14 13 12 11 9 9 11 13 15 17 19 21 22 24 24 24 24 24 24 25 26 26 26 25 25 23 22 22 22 21 22 24 25 26 27 30 33 35 36 36 33 32 29 25 23 24 29 34 37 37 35
27 23 21 19 17 17 17 16 17 16 16 15 13 12 11 9 9 10 12 14 16 18 21 23 24 24 24 23 24 24 24 24 25 25 25 25 24 23 22 22 23 22 23 24 25 25 26 26 28 31 35 38 37 35 33 30 27 25 25 29 33 34 33
29 25 21 19 18 17 16 16 15 15 14 13 12 11 9 9 9 11 13 16 18 21 23 23 23 22 22 23 24 26 26 26 27 27 27 26 25 24 24 24 24 24 24 25 26 26 26 26 26 27 30 35 38 38 36 34 31 28 26 27 30 30 29
29 25 21 19 17 16 15 14 13 13 12 12 11 10 8 9 10 13 15 18 20 22 22 21 20 21 23 25 26 27 27 28 29 28 28 27 25 24 25 25 26 26 26 27 28 27 26 26 26 26 26 30 35 38 39 38 35 31 28 26 28 29 28
29 24 21 18 16 15 14 12 12 12 12 11 10 9 8 10 12 14 17 20 21 21 20 20 21 23 26 28 29 28 28 29 29 29 28 28 26 26 26 26 26 27 28 28 29 29 28 28 28 28 26 27 30 35 39 41 39 37 33 30 30 30 29
26 22 20 17 15 14 12 12 12 11 10 10 10 10 10 11 13 17 20 21 20 20 21 23 25 27 29 31 31 31 30 29 28 28 28 28 28 29 29 29 30 29 30 30 30 30 31 31 32 32 31 29 29 31 35 39 41 41 39 36 34 33 30
24 21 19 17 15 13 12 12 10 9 9 10 11 11 11 13 17 19 19 19 19 21 22 24 26 29 31 32 33 33 32 30 28 27 28 29 29 30 30 31 31 32 32 32 32 32 32 32 33 34 35 34 33 33 33 35 39 41 41 41 40 37 34
24 22 20 17 15 14 12 10 8 8 10 11 11 12 13 16 18 19 18 18 19 21 23 25 28 30 32 33 34 34 34 31 30 30 31 32 32 33 32 32 32 32 33 33 33 33 33 33 32 32 33 34 35 35 34 34 36 38 39 42 43 42 40
27 24 21 18 16 14 10 8 7 9 11 12 12 14 16 18 18 17 17 18 20 22 24 27 30 32 33 34 34 34 33 33 33 34 34 35 36 37 37 37 36 36 35 35 35 35 35 35 35 34 34 34 35 35 35 36 36 36 37 39 42 45 45
28 26 23 19 16 12 8 8 9 10 12 12 14 16 17 18 17 16 17 19 22 25 28 30 32 33 34 34 33 32 32 33 35 36 37 38 39 40 40 41 41 40 39 38 37 36 36 36 36 36 36 36 37 37 36 36 37 38 38 37 39 44 46
28 27 24 19 15 11 8 9 9 10 12 14 16 17 18 17 17 17 19 21 25 28 29 31 32 33 33 32 32 32 33 35 37 38 39 40 41 42 42 42 42 42 40 39 38 37 36 36 36 37 38 38 39 39 38 37 36 36 38 36 36 41 44
29 27 23 18 14 10 8 9 9 11 14 16 18 18 17 17 17 19 21 24 26 28 29 31 31 31 31 31 32 33 34 36 38 40 41 41 42 43 42 41 40 40 39 39 37 36 35 36 36 37 39 40 41 41 41 41 38 35 36 37 37 38 39
29 26 22 18 12 9 8 9 12 14 16 17 17 17 16 17 19 20 21 23 25 27 28 28 29 29 29 30 30 32 33 36 38 40 41 42 42 42 41 39 39 39 39 39 38 35 34 34 35 37 39 41 41 42 43 43 40 39 38 39 39 38 38
27 25 21 15 9 8 10 13 15 16 16 16 16 16 17 17 17 18 20 23 25 28 30 30 30 31 30 30 31 32 33 35 36 38 40 41 41 41 40 39 39 40 40 40 38 37 35 34 35 37 39 41 42 43 44 42 40 40 40 39 40 41 41
26 22 16 11 9 10 13 14 15 15 15 15 14 13 14 14 15 19 22 24 27 31 34 35 35 34 33 32 32 33 34 35 36 37 38 38 39 40 40 40 39 39 40 40 39 38 36 35 36 37 38 40 42 44 45 42 39 39 38 37 38 41 43
23 19 13 11 11 12 13 13 14 15 14 12 10 11 12 13 16 20 23 26 28 32 36 39 39 37 35 33 33 32 33 34 35 36 37 38 38 39 39 39 39 38 39 39 39 39 37 35 35 36 37 38 42 45 44 40 39 39 37 36 36 37 41
23 17 12 11 12 13 13 12 11 10 9 8 9 11 13 14 18 21 25 27 29 32 37 41 40 37 35 34 32 31 31 32 34 36 37 38 39 40 40 40 39 38 37 38 38 38 37 36 35 36 37 39 43 45 41 39 39 39 36 36 36 35 37
20 15 12 12 13 11 9 4 3 5 6 8 10 12 13 15 19 23 26 28 29 31 37 42 42 39 37 35 33 31 31 32 33 36 38 39 39 41 41 41 41 39 38 38 37 37 37 37 36 36 38 39 41 40 38 38 39 38 37 38 38 36 36
17 15 14 13 9 5 1 5 7 8 8 9 11 12 14 17 21 25 27 28 29 31 36 41 44 43 40 36 34 32 31 32 32 34 37 38 39 40 41 41 41 40 39 39 38 38 38 37 37 38 39 39 38 36 35 36 37 38 40 41 41 41 39
17 15 12 9 6 6 6 8 8 8 8 10 12 13 15 19 22 25 26 27 29 31 36 41 45 46 43 40 37 34 32 32 32 32 35 38 39 40 41 41 41 41 40 39 39 38 38 37 38 40 40 40 39 36 35 35 36 37 39 40 41 42 41
14 12 10 9 7 6 6 6 7 8 8 10 12 14 17 20 23 25 27 28 30 32 37 41 45 47 46 43 40 37 35 33 33 33 35 38 40 41 42 42 42 41 40 39 38 38 38 38 39 40 41 40 38 37 36 36 37 37 38 39 41 42 42
Wind_Direction
199 190 175 180 186 97 85 78 74 68 67 66 65 66 66 72 78 75 70 239 232 232 237 241 244 247 248 247 247 248 251 255 257 258 260 261 259 257 255 255 255 252 251 249 246 246 252 258 257 255 255 252 247 246 247 251 254 254 257 262 264 264 265
202 201 199 206 228 232 221 74 76 73 71 69 72 73 72 73 73 74 72 63 42 256 245 245 250 254 257 255 253 256 259 261 263 266 267 266 265 265 262 260 260 258 257 258 258 256 254 254 254 254 255 252 247 245 244 247 252 254 257 260 263 265 267
203 206 214 222 228 231 229 223 81 82 84 77 77 80 79 77 75 75 71 62 53 11 303 276 268 264 265 265 261 261 262 262 262 264 267 268 267 269 268 267 267 265 262 263 264 264 262 258 253 253 253 247 243 241 240 242 247 251 255 259 261 263 265
209 214 222 227 230 231 225 221 230 154 122 98 93 93 87 78 66 64 58 45 30 350 312 291 286 279 274 270 266 264 262 262 263 262 263 264 266 269 268 268 272 272 270 269 268 268 269 265 259 256 252 246 243 241 238 242 246 247 250 254 256 258 261
218 223 225 230 235 233 225 224 223 207 188 159 137 124 115 110 64 34 17 9 358 340 329 318 309 298 288 278 270 266 263 262 263 263 263 262 262 265 266 267 269 272 271 270 271 270 270 271 270 267 259 251 251 251 249 250 252 250 250 250 251 253 256
222 227 227 232 240 239 231 230 230 226 221 216 210 205 189 197 2 7 356 350 345 339 338 335 330 321 310 297 282 270 264 262 262 263 263 262 261 261 264 265 266 268 267 267 272 272 271 271 272 273 268 261 259 260 260 261 261 258 255 252 250 249 251
227 230 230 234 241 243 238 236 237 235 233 237 249 267 287 311 327 335 333 331 334 335 334 334 334 333 327 318 306 289 274 264 261 261 263 263 262 259 260 263 264 265 265 266 271 275 275 274 270 270 272 271 268 267 267 267 267 266 260 255 253 251 249
234 235 235 238 242 243 240 237 233 232 234 237 246 261 279 300 310 314 316 320 326 328 329 331 333 337 337 332 323 308 293 277 266 262 262 263 263 261 259 260 262 264 265 266 268 272 275 278 278 275 274 273 271 272 273 271 270 270 267 264 261 258 257
234 235 236 237 239 240 240 238 234 232 231 231 237 249 260 274 288 301 310 315 320 324 328 332 335 337 339 340 335 320 304 290 276 269 266 263 261 261 260 260 261 262 263 264 265 268 269 273 277 278 278 274 270 271 273 273 272 271 270 271 270 267 265
234 236 237 237 237 238 237 235 235 233 229 229 232 239 249 262 277 292 305 311 317 323 328 333 336 337 337 337 336 330 317 300 283 274 269 267 263 259 258 258 259 260 261 262 262 264 266 268 269 270 273 275 274 274 272 271 272 272 271 272 273 272 269
235 235 236 237 238 237 235 233 233 234 231 231 232 236 247 259 274 288 299 307 314 323 329 333 335 334 335 333 331 329 326 317 301 285 274 269 267 264 261 258 257 257 259 261 261 261 263 266 268 268 269 271 275 278 277 273 271 272 273 272 271 272 270
235 233 231 233 236 236 236 237 236 236 234 234 236 240 249 259 274 286 294 300 311 323 328 330 331 329 330 329 327 325 324 321 315 305 292 278 270 267 266 264 261 259 258 259 260 260 261 263 266 268 268 269 271 274 277 277 273 272 273 272 271 271 271
233 230 226 227 233 235 237 238 238 237 237 239 242 246 254 264 276 283 286 295 310 322 325 326 326 326 326 325 324 324 324 323 319 315 309 299 284 273 269 267 266 265 262 260 259 259 260 260 261 264 265 266 267 268 273 274 271 272 274 273 273 273 272
230 226 224 225 230 233 235 236 235 237 238 242 246 251 260 269 274 276 281 297 313 320 323 324 324 323 323 322 323 323 322 321 319 316 312 307 301 289 276 268 265 266 266 265 262 260 259 258 258 259 260 263 265 265 270 272 269 270 274 273 273 274 274
228 224 223 224 228 231 234 234 234 237 240 243 248 254 261 267 270 276 291 309 318 321 321 320 319 319 319 318 318 318 316 314 312 311 309 306 303 297 286 275 266 263 264 267 266 263 261 258 256 256 256 259 263 263 269 276 272 269 271 273 274 273 273
226 224 224 224 227 229 231 233 234 237 241 244 248 254 260 265 270 286 307 316 318 319 317 315 314 314 314 313 312 311 309 307 306 305 303 301 299 295 290 284 274 266 264 265 265 265 265 261 257 255 254 255 260 262 264 275 279 274 271 272 272 273 273
224 223 225 225 227 228 229 230 233 237 240 243 248 253 258 266 279 301 315 316 314 312 310 310 310 310 309 309 307 306 304 302 302 301 298 295 292 289 288 287 282 276 273 269 265 264 268 266 260 256 254 253 256 260 261 267 276 280 279 277 275 273 272
223 223 225 226 226 227 228 228 230 233 237 241 246 252 261 275 294 308 311 309 308 307 307 307 307 308 309 309 307 305 304 302 300 299 297 293 290 288 289 288 285 282 281 278 271 267 268 270 267 261 256 254 254 257 260 263 267 274 280 281 278 273 270
223 223 224 225 226 226 227 228 228 231 235 240 246 255 269 289 301 305 305 305 305 303 303 305 308 311 313 313 312 308 305 304 302 301 300 299 296 295 294 293 290 287 285 283 279 275 272 273 273 269 261 256 254 256 259 260 263 267 272 276 279 278 274
222 222 222 222 224 225 226 228 230 234 238 241 249 263 278 292 300 303 303 302 300 299 302 308 314 317 317 316 313 309 305 304 303 302 302 300 298 297 296 295 294 292 290 289 286 284 282 281 279 276 269 261 257 257 258 259 260 263 266 269 273 278 279
220 221 221 220 222 224 225 229 233 236 240 246 258 270 280 291 299 300 297 295 295 299 307 315 319 319 319 318 316 311 306 303 301 300 298 296 294 292 291 290 290 290 289 289 289 287 286 286 284 280 275 269 263 259 259 259 260 261 262 263 264 269 274
222 221 220 219 220 222 224 229 234 237 245 257 266 274 284 292 292 290 290 293 299 309 315 318 319 319 318 318 316 313 309 303 299 297 295 293 291 288 287 286 285 285 285 284 284 282 281 280 279 277 275 273 270 265 261 260 259 261 263 263 261 263 267
228 225 222 221 221 221 225 229 234 242 255 264 271 278 283 284 284 288 294 301 309 314 314 314 314 313 313 313 312 311 308 302 297 295 294 293 292 290 288 287 284 283 283 283 282 282 280 278 276 274 272 271 270 269 267 264 261 260 263 264 262 261 263
233 229 223 221 221 222 226 231 238 252 262 268 272 277 279 281 286 294 301 306 307 307 306 307 308 308 308 309 309 308 306 302 298 297 296 296 295 295 293 290 288 286 284 283 283 282 282 281 279 276 274 271 268 267 266 265 263 262 262 264 263 262 262
232 229 223 221 221 222 226 234 248 260 263 267 271 275 279 284 290 297 299 299 299 299 302 305 306 307 307 306 306 305 303 300 298 297 297 297 296 296 295 294 292 290 287 286 284 281 280 278 278 277 276 273 269 266 262 258 257 258 260 263 263 261 261
224 223 220 219 219 220 225 238 250 258 261 266 271 274 279 284 288 290 291 293 297 302 306 308 308 307 306 305 303 301 299 297 295 295 295 295 295 295 295 294 293 291 289 288 286 284 281 277 275 274 274 274 271 268 265 258 253 251 254 259 263 261 259
213 213 215 215 214 213 222 237 248 256 261 265 268 272 278 281 283 286 292 300 306 309 310 310 308 306 305 303 300 297 295 293 292 292 291 291 292 291 291 292 291 290 289 288 287 286 284 280 278 274 272 271 269 268 267 263 257 252 250 252 258 260 259
202 206 210 207 205 209 223 239 247 254 259 262 267 272 276 279 285 295 305 311 312 312 312 310 308 306 304 302 299 296 293 291 289 288 288 288 288 288 288 289 288 288 288 289 289 288 286 284 282 278 275 271 269 267 265 263 261 257 252 248 249 254 256
196 200 200 198 201 213 226 236 243 250 256 261 266 272 277 285 297 308 314 314 315 317 320 319 316 311 307 304 301 298 294 291 288 287 286 286 286 286 286 285 284 286 288 289 290 289 288 286 283 280 278 275 272 270 266 263 262 260 255 249 245 246 249
193 192 191 194 203 217 224 233 243 250 256 260 267 276 286 298 309 314 316 318 322 327 329 329 326 320 315 311 306 302 299 295 291 288 286 285 284 283 282 281 281 285 287 288 289 289 289 287 283 280 277 275 275 272 268 267 268 265 261 255 247 242 244
188 186 188 197 211 222 229 238 247 252 258 265 276 292 304 312 318 320 322 323 325 327 329 330 330 326 321 316 310 305 301 297 294 291 289 287 284 281 280 279 280 283 284 286 287 287 287 285 282 278 276 274 274 271 269 270 272 269 267 264 254 244 241
183 183 191 206 218 228 235 242 250 256 263 276 296 314 316 313 314 319 322 322 323 324 326 329 330 327 323 319 312 306 302 298 296 294 292 289 287 284 282 281 280 281 282 283 284 284 284 282 279 277 274 272 271 269 269 270 271 270 270 270 264 251 242
184 185 192 208 218 225 231 240 252 263 279 302 321 323 313 302 305 314 319 320 320 322 326 329 331 328 324 321 314 306 300 297 296 295 293 292 290 287 285 283 281 281 281 281 282 282 281 278 276 274 271 268 267 267 269 269 268 268 268 269 267 260 247
179 179 187 201 208 214 223 246 308 330 336 335 329 320 308 301 306 313 318 318 317 320 327 333 335 332 328 323 316 307 298 295 296 296 295 294 292 290 288 286 284 283 282 282 281 280 279 276 274 271 268 265 265 267 269 268 265 265 264 264 265 263 253
169 172 180 186 185 175 99 25 11 355 343 334 324 313 305 305 310 314 317 317 314 317 328 335 337 335 331 325 319 311 300 295 296 298 297 296 293 292 290 289 288 287 286 286 284 282 280 277 273 269 265 264 264 264 264 264 264 263 262 261 263 263 258
158 159 157 146 121 83 47 22 2 347 337 327 316 307 304 307 312 315 316 314 311 315 327 334 336 335 332 327 322 315 305 299 298 299 298 296 295 294 291 289 288 288 287 286 284 282 279 275 271 267 264 262 260 259 259 260 260 260 260 260 261 261 258
146 139 126 113 96 68 37 10 347 335 328 320 310 303 304 308 312 314 314 310 308 314 326 333 334 333 332 328 324 318 311 303 301 300 298 297 297 296 294 292 291 290 289 287 284 281 278 274 270 267 265 262 258 254 253 254 254 255 257 257 257 258 256